Starlink 32587

operational
NORAD ID: 62180 Int'l Des: 2024-225 Owner: SPXS Country: US Constellation: starlink
LEOCIRCULAR

关于 Starlink 32587

正在加载描述...

实时位置

正在加载3D地球...

即将过境

高度历史

Altitude vs Time

uPlot chart will show altitude changes over time

两行轨道根数

1 62180U 24225T 25352.48449653 .00009001 00000-0 76144-3 0 9997
2 62180 70.0019 9.0200 0003517 292.8404 67.2383 14.98317572 57718
Epoch: Dec 18, 2025 • Age: 9 hours

当前状态

高度 595.1 km
速度 7.56 km/s
星下点 -68.69°S, 143.65°W
发射日期 Nov 30, 2024
运行时间 1 years
类型 internet

技术详情

分类 Payload
质量 730.00 kg
干质量 700.00 kg
总质量 730.00 kg
长度 0.30 m
直径 4.10 m
跨度 29.00 m
形状 Box + pan
制造商 SPXS
平台类型 Starlink V2M
阶段状态 In Orbit
所有者/国家 SPXS/US

大型星座

Loading constellations...